Weather in Sinda

Russia / Khabarovsk Krai     48°57′21″N   136°17′37″E
temp.,
°C
wind,
m/s
gust,
m/s
humid.,
%
clouds,
%
prec.,
mm/h
press.,
hPa
HPBL,
m
17 may, mon
mon1701:00+10s22775 0.0 100116
04:00+9ssw22875 0.0 100119
07:00+11ssw23785 0.0 1002135
10:00+17sw23530 0.0 1002691
13:00+22wsw35330 0.0 10012039
16:00+23sw46310 0.0 10002222
19:00+21ssw37423 0.0 1000168
22:00+14s411585 0.0 1001176
18 may, tue
tue1801:00+13s512575 0.0 1001191
04:00+12ssw615535 0.0 1002303
07:00+14ssw714584 0.0 1002387
10:00+21ssw8134546 0.0 1001810
13:00+25sw81435100 0.0 10002007
16:00+26sw71437100 0.0 9992286
19:00+24ssw8154115 0.0 9991003
22:00+21ssw8184314 0.0 1000677
19 may, wed
wed1901:00+16sw36605 0.1 1001116
04:00+13w117233 0.1 100211
07:00+14ne227190 0.3 1003162
10:00+17nnw336571 0.3 1004725
13:00+15w0175100 1.0 1004328
16:00+21w364875 1.0 10041945
19:00+20sw47544 0.0 1005477
22:00+15ssw33690 0.0 100628
20 may, thu
thu2001:00+13sse34765 0.0 100757
04:00+12se228051 0.0 100624
07:00+15sse39716 0.0 1005216
10:00+23ssw8145237 0.0 10021238
13:00+26wsw9134475 0.1 10021842
16:00+27wsw8114135 0.1 10021936
19:00+24wsw51051100 0.0 1002441
22:00+18sw3565100 0.0 100365
21 may, fri
fri2101:00+16sw36816 0.1 1004114
04:00+14ssw36930 0.9 1005121
07:00+16wsw13830 0.0 1006173
10:00+21w23441 0.0 1007897
13:00+24nnw333823 0.0 10061181
16:00+23n543887 0.0 1005776
19:00+20nne51049100 0.0 1005335
22:00+16ne51449100 0.0 1006290